Date String (YYYY-MM-DD hh:mm:ss) UTC,Instrument flags,Ambient pressure (hPa),Sample flow (lpm),Bypass flow (lpm),Sample temperature (°C),Ambient temperature (°C),ASC tube jacket temperature (°C),LED temperature (°C),Box temperature (°C),Sample RH (%),Span deviation,Mass concentration (μg/m³),Mass concentration (μg/m³),Mass concentration (μg/m³)
DateTimeUTC,F1_M11,P_M11,Q1_M11,Q2_M11,T1_M11,T2_M11,T3_M11,T4_M11,T5_M11,U1_M11,ZSPAN_M11,X2_M11,X0_M11,X1_M11
2021-11-06 21:00:00,,0825.1,5.00,0.00,30.4,29.3,00.0,39.3,32.1,07.2,0000.0,0003.13,0012.74,0001.84
2021-11-06 21:01:00,,0825.2,5.00,0.00,30.4,29.5,00.0,39.3,32.2,07.4,0000.0,0003.17,0012.54,0001.89
2021-11-06 21:02:00,,0825.2,4.99,0.00,30.4,29.6,00.0,39.4,32.3,07.3,0000.0,0003.20,0011.81,0001.95
2021-11-06 21:03:00,,0825.2,5.00,0.00,30.5,29.7,00.0,39.4,32.3,07.4,0000.0,0003.21,0012.49,0001.99
2021-11-06 21:04:00,,0825.1,5.00,0.00,30.5,29.8,00.0,39.4,32.4,07.4,0000.0,0003.25,0012.33,0002.05
2021-11-06 21:05:00,,0825.2,4.98,0.00,30.6,29.8,00.0,39.4,32.4,07.5,0000.0,0003.30,0012.40,0002.11
2021-11-06 21:06:00,,0825.1,5.00,0.00,30.6,28.7,00.0,39.5,32.2,07.4,0000.0,0003.35,0013.41,0002.19
2021-11-06 21:07:00,,0825.1,5.00,0.00,30.4,26.5,00.0,39.4,31.7,07.2,0000.0,0003.41,0013.26,0002.24
2021-11-06 21:08:00,,0825.1,5.00,0.00,30.3,26.1,00.0,39.4,31.6,07.2,0000.0,0003.47,0013.91,0002.29
2021-11-06 21:09:00,,0825.0,4.99,0.00,30.2,26.6,00.0,39.3,31.7,07.2,0000.0,0003.53,0014.15,0002.34
2021-11-06 21:10:00,,0825.0,5.00,0.00,30.1,27.1,00.0,39.3,31.7,07.3,0000.0,0003.56,0014.54,0002.39
2021-11-06 21:11:00,,0825.0,4.99,0.00,30.1,27.6,00.0,39.2,31.7,06.9,0000.0,0003.57,0014.42,0002.40
2021-11-06 21:12:00,,0824.9,5.00,0.00,30.1,28.0,00.0,39.2,31.7,06.7,0000.0,0003.55,0014.12,0002.39
2021-11-06 21:13:00,,0824.9,4.99,0.00,30.1,28.3,00.0,39.2,31.8,06.7,0000.0,0003.59,0014.56,0002.38
2021-11-06 21:14:00,,0824.9,4.99,0.00,30.2,28.6,00.0,39.2,31.9,06.7,0000.0,0003.58,0013.91,0002.38
2021-11-06 21:15:00,,0824.9,5.00,0.00,30.2,28.8,00.0,39.2,31.9,06.7,0000.0,0003.58,0014.03,0002.36
2021-11-06 21:16:00,,0824.9,5.00,0.00,30.2,29.0,00.0,39.2,32.0,06.8,0000.0,0003.54,0014.34,0002.33
2021-11-06 21:17:00,,0824.9,5.01,0.00,30.2,29.2,00.0,39.2,32.0,06.7,0000.0,0003.49,0012.85,0002.27
2021-11-06 21:18:00,,0824.9,5.00,0.00,30.3,29.3,00.0,39.2,32.1,06.6,0000.0,0003.46,0012.88,0002.25
2021-11-06 21:19:00,,0825.0,4.99,0.00,30.3,29.4,00.0,39.2,32.1,06.6,0000.0,0003.42,0013.31,0002.23
2021-11-06 21:20:00,,0825.1,5.01,0.00,30.4,29.6,00.0,39.3,32.2,06.6,0000.0,0003.37,0012.83,0002.21
2021-11-06 21:21:00,,0825.1,5.00,0.00,30.4,29.7,00.0,39.3,32.2,06.7,0000.0,0003.33,0012.79,0002.19
2021-11-06 21:22:00,,0825.0,5.01,0.00,30.5,29.8,00.0,39.3,32.3,06.7,0000.0,0003.31,0013.17,0002.17
2021-11-06 21:23:00,,0825.0,4.98,0.00,30.5,29.8,00.0,39.3,32.3,06.5,0000.0,0003.34,0013.31,0002.17
2021-11-06 21:24:00,,0825.0,5.02,0.00,30.5,29.0,00.0,39.4,32.2,06.5,0000.0,0003.30,0014.48,0002.17
2021-11-06 21:25:00,,0824.9,5.00,0.00,30.4,26.8,00.0,39.3,31.8,06.5,0000.0,0003.29,0014.68,0002.17
2021-11-06 21:26:00,,0824.9,5.00,0.00,30.3,26.2,00.0,39.3,31.6,06.4,0000.0,0003.28,0014.20,0002.16
2021-11-06 21:27:00,,0824.8,5.00,0.00,30.2,26.6,00.0,39.3,31.7,06.3,0000.0,0003.28,0013.95,0002.16
2021-11-06 21:28:00,,0824.9,5.01,0.00,30.1,27.0,00.0,39.2,31.6,06.4,0000.0,0003.28,0013.69,0002.13
2021-11-06 21:29:00,,0824.8,4.99,0.00,30.1,27.5,00.0,39.2,31.7,06.3,0000.0,0003.26,0013.52,0002.12
2021-11-06 21:30:00,,0824.9,5.00,0.00,30.1,27.9,00.0,39.1,31.7,06.4,0000.0,0003.28,0012.53,0002.11
2021-11-06 21:31:00,,0824.9,4.99,0.00,30.1,28.3,00.0,39.1,31.8,06.4,0000.0,0003.26,0012.42,0002.08
2021-11-06 21:32:00,,0824.9,5.00,0.00,30.1,28.6,00.0,39.1,31.9,06.5,0000.0,0003.28,0012.44,0002.07
2021-11-06 21:33:00,,0824.8,4.99,0.00,30.1,28.8,00.0,39.1,31.9,06.5,0000.0,0003.26,0012.87,0002.05
2021-11-06 21:34:00,,0824.8,5.00,0.00,30.2,29.0,00.0,39.1,32.0,06.2,0000.0,0003.22,0013.18,0002.04
2021-11-06 21:35:00,,0824.7,4.99,0.00,30.2,29.2,00.0,39.2,32.0,06.2,0000.0,0003.20,0010.94,0002.00
2021-11-06 21:36:00,,0824.8,4.99,0.00,30.3,29.3,00.0,39.2,32.1,06.2,0000.0,0003.17,0010.66,0001.98
2021-11-06 21:37:00,,0824.8,5.00,0.00,30.3,29.4,00.0,39.2,32.1,06.3,0000.0,0003.20,0011.11,0001.95
2021-11-06 21:38:00,,0824.8,5.00,0.00,30.3,29.5,00.0,39.2,32.2,06.2,0000.0,0003.18,0010.85,0001.94
2021-11-06 21:39:00,,0824.9,5.00,0.00,30.4,29.6,00.0,39.2,32.2,06.2,0000.0,0003.19,0011.43,0001.97
2021-11-06 21:40:00,,0824.9,5.00,0.00,30.4,29.7,00.0,39.3,32.3,06.2,0000.0,0003.20,0011.90,0001.97
2021-11-06 21:41:00,,0824.9,5.00,0.00,30.4,28.9,00.0,39.3,32.1,06.0,0000.0,0003.16,0011.50,0001.95
2021-11-06 21:42:00,,0824.8,5.01,0.00,30.3,26.7,00.0,39.3,31.7,05.9,0000.0,0003.14,0011.43,0001.94
2021-11-06 21:43:00,,0824.8,5.01,0.00,30.2,26.1,00.0,39.2,31.5,06.0,0000.0,0003.11,0010.82,0001.93
2021-11-06 21:44:00,,0824.8,4.99,0.00,30.1,26.4,00.0,39.2,31.5,06.0,0000.0,0003.13,0010.56,0001.92
2021-11-06 21:45:00,,0824.8,5.01,0.00,30.0,26.9,00.0,39.1,31.5,05.7,0000.0,0003.13,0010.10,0001.90
2021-11-06 21:46:00,,0824.9,4.99,0.00,30.0,27.3,00.0,39.1,31.6,05.7,0000.0,0003.13,0010.10,0001.89
2021-11-06 21:47:00,,0824.8,5.00,0.00,30.0,27.7,00.0,39.1,31.7,05.8,0000.0,0003.13,0010.51,0001.87
2021-11-06 21:48:00,,0824.9,5.01,0.00,30.0,28.1,00.0,39.1,31.8,05.8,0000.0,0003.03,0010.12,0001.85
2021-11-06 21:49:00,,0824.9,4.98,0.00,30.0,28.4,00.0,39.0,31.8,05.7,0000.0,0002.94,0009.41,0001.81
2021-11-06 21:50:00,,0824.9,5.01,0.00,30.0,28.6,00.0,39.0,31.8,05.8,0000.0,0002.83,0009.80,0001.76
2021-11-06 21:51:00,,0824.9,4.99,0.00,30.1,28.8,00.0,39.0,31.9,05.8,0000.0,0002.75,0009.74,0001.73
2021-11-06 21:52:00,,0824.9,4.99,0.00,30.1,29.0,00.0,39.1,31.9,05.4,0000.0,0002.70,0009.66,0001.71
2021-11-06 21:53:00,,0824.9,5.00,0.00,30.2,29.1,00.0,39.1,32.0,05.5,0000.0,0002.75,0009.73,0001.70
2021-11-06 21:54:00,,0824.9,5.02,0.00,30.2,29.3,00.0,39.1,32.0,05.6,0000.0,0002.76,0009.90,0001.68
2021-11-06 21:55:00,,0824.9,5.00,0.00,30.2,29.4,00.0,39.1,32.1,05.6,0000.0,0002.70,0009.30,0001.65
2021-11-06 21:56:00,,0824.9,4.99,0.00,30.3,29.4,00.0,39.1,32.1,05.7,0000.0,0002.67,0008.99,0001.65
2021-11-06 21:57:00,,0824.9,5.00,0.00,30.3,29.6,00.0,39.2,32.2,05.9,0000.0,0002.69,0009.32,0001.64
2021-11-06 21:58:00,,0824.9,5.00,0.00,30.4,29.6,00.0,39.2,32.2,05.8,0000.0,0002.68,0009.50,0001.63
2021-11-06 21:59:00,,0824.9,5.00,0.00,30.4,29.7,00.0,39.2,32.3,05.8,0000.0,0002.68,0010.07,0001.62
